Аэропорт
Игнатьево (UHBB)

 UHBB / BQS
ЗЦ Хабаровск
Хабаровск (UHHH)
Хабаровск (UHHH)
 50.42540, 127.41200  / 638 ft

 UHBB 251100Z 18002MPS CAVOK 19/16 Q1010 R36/090060 NOSIG RMK QFE740/0987
 TAF UHBB 250745Z 2509/2609 19003MPS 9999 SCT030CB TEMPO 2518/2523 0500 FG BECMG 2601/2603 11003MPS
uhbb_aip_1605
показать схемы
Название сценария Тип сценария Flight Simulator 9 Flight Simulator X Prepar3D v2 Prepar3D v3 Prepar3D v4 xPlane
uhbb-scenery-fs9-1406 бесплатный
uhbb-scenery-xpl-1209 бесплатный


2019 © VATRUS division (Privacy Policy)